Погода в Святославке

Россия / Кемеровская область (Кузбасс)     56°26′03″N   86°48′29″E
темп.,
°C
ветер,
м/с
пор.,
м/с
влажн.,
%
обл.,
%
осадки,
мм/ч
давл.,
гПа
погр.,
м
8 мая, сб
сб801:00+9зсз41059100 0.0 1013342
04:00+7з37625 0.0 1014165
07:00+7юз5126667 0.0 1014501
10:00+11з7114567 0.0 10132082
13:00+14з8133396 0.0 10132564
16:00+14сз71333100 0.0 10122584
19:00+12ссз51145100 0.0 10131947
22:00+8ссз376494 0.0 1015298
9 мая, вс
вс901:00+5сз38775 0.0 1016299
04:00+3сз38826 0.0 1017288
07:00+3ссз47815 0.0 1018368
10:00+7ссз465768 0.0 10191396
13:00+8с4547100 0.1 10201616
16:00+9с555095 0.0 10201409
19:00+9с554982 0.0 10211500
22:00+5ссв36695 0.0 1023119
10 мая, пн
пн1001:00+3ссв27835 0.0 1024169
04:00+2ссв238711 0.0 102448
07:00+4всв24775 0.0 1024172
10:00+9всв355821 0.0 10241091
13:00+11всв4550100 0.0 10231608
16:00+14в364010 0.0 10211844
19:00+14в46421 0.0 10201958
22:00+9в25645 0.0 102196
11 мая, вт
вт1101:00+6всв37740 0.0 1020147
04:00+4св36833 0.0 1019118
07:00+6св4107367 0.0 1019302
10:00+12всв6104693 0.0 10181422
13:00+15всв6835100 0.0 10162068
16:00+17всв673398 0.0 10152340
19:00+16св573976 0.0 10151619
22:00+12св51151100 0.0 1017454
12 мая, ср
ср1201:00+10св41059100 0.0 1017426
04:00+7всв41074100 0.0 1018314
07:00+7всв4980100 0.0 1019410
10:00+10всв5755100 0.0 1019849
13:00+13всв5638100 0.0 10181758
16:00+15всв5632100 0.0 10172180
19:00+14всв453588 0.0 10182148
22:00+9всв395048 0.0 1020187